Corpus Christi NAS, TX

3:16 AM CDT on April 30, 2017 (GMT -0500)
Corpus Christi Naval Air Station-Truax

Weather History for KNGP - October, 2012

Change the Weather History Date:

Sunday, October 14, 2012

  Actual Average Record
Temperature  
Mean Temperature 82 °F -  
Max Temperature 88 °F 80 °F 90 °F (2015)
Min Temperature 77 °F 66 °F 54 °F (2004)
Cooling Degree Days 17    
Growing Degree Days 32 (Base 50)    
Moisture  
Dew Point 73 °F    
Average Humidity 76    
Maximum Humidity 90    
Minimum Humidity 57    
Precipitation  
Precipitation 0.00 in - - ()
Sea Level Pressure  
Sea Level Pressure 29.98 in    
Wind  
Wind Speed 13 mph (SSE)    
Max Wind Speed 17 mph    
Max Gust Speed 24 mph    
Visibility 10 miles    
Events      
Averages and records for this station are not official NWS values.
T = Trace of Precipitation, MM = Missing Value Source: NWS Daily Summary

Daily Weather History Graph

Daily Weather History Graph

Search for Another Location

Airport or City:

Trip Planner

Search our weather history database for the weather conditions in past years. The results will help you decide how hot, cold, wet, or windy it might be!

Date:

Astronomy

Oct. 14, 2012 Rise Set
Actual Time 7:29 AM CDT 7:00 PM CDT
Civil Twilight 7:05 AM CDT 7:24 PM CDT
Nautical Twilight 6:38 AM CDT 7:51 PM CDT
Astronomical Twilight 6:11 AM CDT 8:18 PM CDT
Moon 6:31 AM CDT (10/14) 6:22 PM CDT (10/14)
Length of Visible Light 12h 18m
Length of Day
11h 31m
Waning Crescent, 1% of the Moon is Illuminated
Oct 14
Waning Crescent
Oct 15
New
Oct 21
First Quarter
Oct 29
Full
Nov 6
Last Quarter

Hourly Weather History & Observations

Time (CDT) Temp. Heat Index Dew Point Humidity Pressure Visibility Wind Dir Wind Speed Gust Speed Precip Events Conditions
12:44 AM 80.6 °F 86.2 °F 75.2 °F 84% 29.95 in 10.0 mi South 12.7 mph 20.7 mph N/A   Mostly Cloudy
12:54 AM 80.6 °F 86.2 °F 75.2 °F 84% 29.96 in 10.0 mi South 13.8 mph - N/A   Overcast
12:56 AM 81.0 °F 87.3 °F 75.9 °F 85% 29.96 in 10.0 mi South 15.0 mph 21.9 mph N/A   Overcast
1:36 AM 80.6 °F 86.2 °F 75.2 °F 84% 29.95 in 10.0 mi South 13.8 mph - N/A   Mostly Cloudy
1:49 AM 80.6 °F 86.2 °F 75.2 °F 84% 29.95 in 10.0 mi South 15.0 mph 24.2 mph N/A   Mostly Cloudy
1:56 AM 80.1 °F 85.1 °F 75.0 °F 85% 29.95 in 10.0 mi South 17.3 mph 24.2 mph N/A   Scattered Clouds
2:56 AM 80.1 °F 85.1 °F 75.0 °F 85% 29.94 in 10.0 mi South 15.0 mph 23.0 mph N/A   Mostly Cloudy
3:56 AM 80.1 °F 85.1 °F 75.0 °F 85% 29.92 in 10.0 mi South 16.1 mph 24.2 mph N/A   Overcast
4:56 AM 80.1 °F 85.1 °F 75.0 °F 85% 29.92 in 10.0 mi South 11.5 mph - N/A   Overcast
5:30 AM 80.6 °F 85.4 °F 73.4 °F 79% 29.93 in 10.0 mi South 12.7 mph - N/A   Overcast
5:47 AM 80.6 °F 86.2 °F 75.2 °F 84% 29.94 in 10.0 mi South 12.7 mph - N/A   Overcast
5:56 AM 80.1 °F 84.5 °F 73.9 °F 81% 29.94 in 10.0 mi South 12.7 mph - N/A   Overcast
6:56 AM 80.1 °F 84.5 °F 73.9 °F 81% 29.95 in 10.0 mi South 12.7 mph - N/A   Mostly Cloudy
7:56 AM 80.1 °F 84.2 °F 73.0 °F 79% 29.98 in 10.0 mi South 9.2 mph - N/A   Scattered Clouds
8:56 AM 82.9 °F 88.8 °F 73.0 °F 72% 29.99 in 10.0 mi South 15.0 mph 21.9 mph N/A   Clear
9:56 AM 84.0 °F 89.6 °F 72.0 °F 67% 30.02 in 10.0 mi South 15.0 mph 20.7 mph N/A   Mostly Cloudy
10:56 AM 86.0 °F 91.5 °F 71.1 °F 61% 30.04 in 10.0 mi South 12.7 mph 20.7 mph N/A   Partly Cloudy
11:56 AM 87.1 °F 92.0 °F 70.0 °F 57% 30.03 in 10.0 mi South 13.8 mph - N/A   Clear
12:56 PM 84.9 °F 90.1 °F 71.1 °F 63% 30.02 in 10.0 mi SSE 11.5 mph - N/A   Clear
1:56 PM 87.1 °F 93.6 °F 72.0 °F 61% 30.00 in 10.0 mi SSE 12.7 mph - N/A   Clear
2:56 PM 87.1 °F 92.8 °F 71.1 °F 59% 29.99 in 10.0 mi SE 13.8 mph 19.6 mph N/A   Mostly Cloudy
3:56 PM 84.9 °F 90.1 °F 71.1 °F 63% 29.98 in 10.0 mi SE 13.8 mph - N/A   Mostly Cloudy
4:56 PM 84.9 °F 90.1 °F 71.1 °F 63% 29.97 in 10.0 mi SE 13.8 mph - N/A   Mostly Cloudy
5:56 PM 82.0 °F 86.7 °F 72.0 °F 71% 29.97 in 10.0 mi SE 12.7 mph - N/A   Mostly Cloudy
6:56 PM 81.0 °F 85.2 °F 72.0 °F 74% 29.98 in 10.0 mi SSE 9.2 mph - N/A   Mostly Cloudy
7:56 PM 80.1 °F 83.8 °F 72.0 °F 76% 29.99 in 10.0 mi SE 6.9 mph - N/A   Scattered Clouds
8:56 PM 80.1 °F 84.2 °F 73.0 °F 79% 30.00 in 10.0 mi SSE 6.9 mph - N/A   Scattered Clouds
9:56 PM 79.0 °F - 73.9 °F 84% 30.01 in 10.0 mi South 5.8 mph - N/A   Mostly Cloudy
10:56 PM 77.0 °F - 73.9 °F 90% 30.02 in 10.0 mi SSE 4.6 mph - N/A   Clear
11:56 PM 78.1 °F - 73.9 °F 87% 30.03 in 10.0 mi Calm Calm - N/A   Clear